Vertical_Velocity
-1 -0 1 2 2 2 3 3 2 2 2 2 2 2 1 1 0 -1 -1 -1 0 1 0 -0 -0 1 2 5 6 5 3 -0 -2 -3 -3 -4 -4 -3 -1 1 1 1 1 1 4 6 7 3 -0 -0 1 2 3 3 3 1 -0 -2 -2 -1 -1 -0 -0 -1 -1 -1 -1 -0 0
-1 -0 1 2 2 3 4 3 3 2 2 2 2 2 2 1 0 -0 -0 1 2 2 1 0 -0 0 2 4 3 2 -0 -2 -4 -4 -3 -3 -2 -1 0 0 0 1 2 4 6 5 1 -2 0 3 5 5 4 3 2 0 -2 -3 -3 -1 -0 -0 -1 -2 -2 -1 -1 0 1
-0 0 1 1 2 2 2 2 2 2 2 2 2 2 1 1 1 1 2 3 2 1 -0 -0 1 1 1 0 -0 -2 -2 -3 -3 -2 -1 -1 -0 -0 -1 -1 1 4 7 7 2 -1 -1 2 5 6 5 3 2 1 0 -1 -2 -2 -2 -0 -0 -1 -2 -1 -1 -0 -0 0 1
-0 -1 -0 -0 0 1 1 1 1 2 2 2 2 2 1 -0 1 2 3 4 2 1 -1 -0 2 1 -0 -2 -3 -3 -2 -1 -1 -1 -1 -0 -0 -0 2 6 9 8 4 -0 -1 1 4 5 4 3 2 1 1 0 -0 -1 -2 -2 -2 -1 -1 -2 -2 -0 1 1 1 0 0
-1 -2 -1 -1 0 1 2 2 2 2 2 2 2 2 0 -1 1 2 3 3 2 0 -0 1 2 -0 -2 -4 -3 -2 -1 -2 -1 -1 -1 -2 -1 0 2 5 3 1 -0 1 4 5 4 1 -0 -0 0 0 1 -0 -1 -2 -2 -2 -2 -2 -2 -1 -1 0 1 1 1 0 0
-2 -1 -1 0 2 2 3 3 2 2 2 2 2 1 -0 -1 0 2 3 2 1 0 0 2 -0 -2 -4 -4 -2 -1 -0 1 5 5 1 -4 -2 -0 1 1 1 1 3 4 3 1 -0 -1 -0 0 1 1 -0 -1 -2 -2 -2 -3 -3 -2 -1 -0 0 0 0 0 0 -0 -0
-0 -0 -0 0 2 2 3 3 3 2 2 1 1 -0 -1 -1 -0 1 1 1 0 -0 -0 -1 -3 -4 -4 -3 -1 2 5 8 8 4 -2 -4 -2 -0 1 1 2 3 3 1 -1 -1 -1 -0 -0 -0 -0 -1 -1 -1 -1 -2 -3 -3 -2 -1 -0 0 0 -0 -0 -0 -1 -1 -1
2 1 1 1 2 2 2 2 2 2 1 0 -0 -0 -1 -1 -0 0 -0 -1 -1 -1 -1 -4 -4 -4 -4 -3 -0 2 4 5 3 -1 -3 -2 -1 0 2 3 4 3 1 -0 -0 0 0 -0 -1 -1 -1 -1 -2 -2 -2 -3 -3 -2 -1 -0 -0 -0 -0 -0 -0 -0 -1 -1 -1
2 2 2 3 3 2 2 2 2 1 -0 -0 -0 -1 -1 -0 1 0 -1 -3 -1 -0 -1 -4 -1 -1 -2 -2 -0 1 1 1 -1 -2 -2 -1 0 3 5 4 1 -0 -0 1 1 1 0 -0 -1 -1 -1 -1 -2 -2 -3 -2 -1 -0 -0 -1 -1 -1 -0 -0 -0 -0 -0 -1 -1
1 2 2 3 3 3 3 2 2 1 -0 -0 -1 -1 -1 0 1 0 -2 -2 0 -0 -2 -2 3 3 -0 -2 -1 -0 -0 -1 -1 -1 -1 -1 3 4 3 -0 0 1 1 2 2 2 1 1 -0 -1 -2 -2 -3 -3 -2 -0 -0 -0 -1 -1 -1 -0 -0 -0 -0 -0 -0 -0 -1
2 2 2 2 3 3 2 1 1 0 0 -0 -1 -2 -2 0 1 -0 -1 -0 -0 -2 -3 -1 3 2 -0 -1 -1 -1 -1 -1 -1 -1 -1 3 3 2 0 0 1 1 1 1 1 2 1 0 -0 -1 -2 -3 -3 -2 -0 0 -0 -0 -1 -1 -0 -0 -0 -1 -1 -0 -0 -0 -0
3 3 3 3 4 3 2 0 -0 0 0 -0 -1 -2 -2 -0 -1 -1 -1 0 -2 -3 -3 -1 1 1 -0 -1 -0 -1 -1 -1 -1 -0 -0 1 0 0 0 1 1 0 -0 -0 0 -0 -1 -1 -1 -1 -2 -2 -1 -0 -0 -0 -1 -1 -1 -0 -0 -1 -1 -1 -1 -0 -0 -0 -0
3 4 4 4 4 3 1 0 -0 0 0 -1 -2 -2 -2 -1 -1 0 1 -0 -3 -3 -2 -1 -1 -1 -1 -1 -0 -1 -1 -1 -0 0 1 1 1 1 1 1 1 -0 -1 -1 -1 -1 -1 -1 -1 -1 -1 -0 -0 -0 -1 -1 -1 -1 -1 -1 -1 -1 -1 -1 -1 -0 -0 -0 0
3 3 3 3 3 2 1 -0 -0 0 0 -1 -2 -2 -2 -2 -1 2 2 -1 -3 -3 -2 -2 -1 -1 -1 -0 1 1 1 -0 0 1 2 2 1 1 1 -0 -1 -1 -2 -2 -1 -1 -1 -1 -1 -1 -0 0 -0 -1 -1 -1 -1 -1 -1 -1 -1 -1 -1 -1 -1 -0 -0 -0 0
2 2 2 3 3 2 1 -1 -1 0 0 -1 -2 -3 -3 -3 0 3 2 -2 -3 -3 -2 -2 -1 -1 1 4 6 5 4 0 0 1 2 2 1 0 -1 -2 -2 -1 -1 -1 -1 -1 -1 -1 -1 -0 -0 -0 -1 -1 -1 -1 -1 -1 -1 -1 -1 -1 -1 -1 -1 -0 -0 0 -0
0 1 2 2 2 1 -0 -1 -1 -0 0 -0 -2 -3 -3 -1 1 2 0 -3 -3 -2 -1 -1 -1 -0 3 8 8 6 2 -1 -0 1 2 1 -0 -1 -2 -2 -1 -1 -1 -1 -1 -1 -1 -0 -0 -0 -0 -0 -1 -1 -1 -1 -1 -1 -1 -0 -0 -1 -1 -1 -0 -0 0 0 -0
-0 -0 0 1 1 1 -0 -1 -1 -0 0 -0 -2 -4 -3 0 2 1 -2 -4 -3 -2 -1 -0 -0 1 2 4 3 1 -1 -2 1 3 3 0 -2 -3 -3 -1 -1 -1 -1 -1 -1 -1 -1 -1 -0 -0 -0 -1 -1 -1 -1 -1 -1 -0 -0 -0 -0 -1 -1 -1 -0 0 0 -0 -0
0 -0 -0 0 1 0 -1 -2 -1 -0 0 -0 -2 -3 -2 1 1 -1 -3 -3 -2 -2 -2 -1 0 0 0 0 -1 -2 -2 0 4 4 2 -0 -2 -2 -2 -1 -1 -1 -1 -1 -1 -1 -1 -1 -0 -1 -1 -1 -1 -1 -1 -1 -0 -0 -0 -0 -0 -0 -0 -0 0 0 -0 -0 -0
1 -0 -0 -1 -1 -1 -1 -1 -0 1 1 0 -1 -2 -2 0 -0 -2 -3 -2 -1 -2 -2 -1 -0 0 0 0 -0 -1 -0 6 6 4 1 1 -0 -1 -1 -1 -0 -0 -1 -1 -1 -1 -1 -1 -1 -1 -1 -1 -1 -1 -1 -0 -0 0 0 -0 -0 -1 -0 -0 0 -0 -0 -0 -0
1 0 -0 -1 -2 -2 -2 -1 0 2 2 1 -0 -1 -1 -0 -1 -3 -3 -2 -1 0 1 1 0 0 0 -0 -1 -0 3 10 5 2 1 1 0 -0 -1 -1 -0 -1 -1 -1 -1 -1 -1 -1 -1 -1 -1 -1 -1 -1 -0 -0 0 0 0 -0 -0 -1 -0 -0 -0 -0 -0 -1 -1
1 0 -0 -1 -2 -2 -2 -0 1 2 2 2 0 -1 -1 -1 -3 -3 -3 -1 1 4 5 1 0 -0 -0 -1 -1 2 6 8 3 2 1 1 -0 -1 -1 -1 -1 -1 -1 -1 -1 -1 -1 -1 -1 -1 -1 -1 -1 -0 -0 0 1 1 0 -0 -0 -0 -0 -0 -0 -0 -1 -1 -1
1 1 0 -0 -1 -1 -1 0 2 2 2 2 0 -0 -1 -2 -4 -4 -2 1 5 6 4 -0 -0 -1 -1 -2 2 5 6 4 2 2 1 -1 -1 -1 -1 -1 -1 -1 -1 -1 -1 -1 -1 -1 -1 -1 -1 -1 -1 -0 0 1 1 1 0 -0 -0 -1 -0 -0 -0 -1 -1 -1 -1
1 1 0 0 -0 -0 -0 1 1 2 1 1 0 -0 -1 -3 -4 -3 -0 4 8 6 1 -1 -1 -2 -2 1 5 6 4 2 2 1 -1 -2 -2 -1 -1 -0 -1 -1 -2 -2 -2 -1 -1 -1 -1 -1 -1 -1 -0 -0 0 1 1 0 0 -0 -0 -1 -1 -1 -1 -1 -1 -1 -1
1 0 0 0 0 -0 -0 0 1 1 1 0 -0 -1 -2 -4 -4 -2 2 8 8 4 -0 -1 -1 -3 -2 4 6 5 2 1 1 -1 -2 -2 -1 -1 -0 -0 -1 -1 -2 -2 -2 -1 -1 -1 -1 -1 -1 -0 -0 0 0 0 0 0 0 -0 -0 -0 -1 -1 -1 -1 -1 -1 -1
0 0 -0 -0 -1 -1 -0 -0 0 0 0 -0 -1 -2 -3 -4 -3 -0 4 10 7 3 0 -1 -2 -3 -2 2 2 2 1 0 0 -1 -1 -1 -1 -0 -0 -0 -1 -2 -2 -2 -2 -1 -1 -1 -1 -1 -0 -0 0 0 0 0 0 0 0 -0 -0 -0 -1 -1 -1 -1 -1 -1 -1
1 0 0 -0 -1 -1 -1 -0 -0 -0 0 0 -1 -2 -4 -4 -2 2 6 10 6 3 1 -1 -2 -3 -3 -2 -1 -0 -0 0 0 -0 -0 -0 -0 -0 -1 -1 -1 -2 -2 -2 -1 -1 -1 -1 -1 -0 -0 0 0 0 0 0 0 0 -0 -0 -0 -1 -1 -1 -1 -1 -1 -1 -1
1 1 0 -0 -1 -1 -1 -0 0 1 0 -0 -1 -2 -4 -4 -2 3 8 8 5 3 1 -2 -3 -3 -2 -2 -1 -1 -1 0 1 0 -0 -1 -1 -1 -1 -1 -2 -2 -2 -2 -1 -1 -1 -1 -0 -0 0 0 0 0 0 0 0 0 -0 -0 -0 -1 -1 -1 -1 -1 -1 -1 -1
0 0 -0 -0 -1 -1 -1 0 1 1 0 -0 -1 -2 -3 -3 -1 4 8 6 4 2 0 -2 -3 -3 -2 -1 -2 -2 -2 -0 -0 -0 -0 -1 -1 -1 -2 -2 -3 -2 -2 -1 -1 -1 -1 -0 -0 -0 0 0 0 0 0 0 0 -0 -0 -0 -1 -1 -1 -1 -1 -1 -1 -1 -0
-0 -0 -0 -1 -1 -1 -0 1 1 0 -0 -1 -1 -1 -2 -2 0 4 6 3 2 1 -0 -3 -3 -2 -1 -2 -2 -2 -2 -1 -1 -1 -0 -0 -1 -1 -2 -3 -2 -2 -1 -1 -1 -1 -1 -0 -0 0 0 0 0 0 0 0 0 -0 -0 -1 -1 -1 -1 -1 -0 -0 -0 -1 -0
0 -0 -1 -1 -1 -0 0 1 0 -0 -1 -1 -1 -1 -2 -2 -0 2 3 2 1 1 -1 -3 -1 -0 -1 -1 -1 -1 -1 -1 -1 -1 -1 -1 -1 -1 -2 -2 -2 -2 -1 -1 -1 -1 -0 -0 -0 -0 0 0 0 1 1 0 0 -0 -0 -1 -1 -1 -1 -1 -0 -0 -0 -0 -0
0 -0 -1 -1 -0 0 1 1 1 -0 -1 -1 -1 -1 -2 -2 -1 1 2 1 1 0 -0 1 1 0 -0 -0 -0 -0 -1 -1 -1 -1 -1 -1 -1 -2 -2 -2 -1 -1 -1 -1 -1 -1 -0 -0 -0 0 0 0 0 1 1 0 0 -0 -0 -1 -1 -1 -1 -0 -0 -0 -0 -0 -0
-0 -0 -0 -0 0 1 1 1 0 -0 -1 -1 -1 -2 -2 -2 0 1 2 2 0 0 1 2 -0 -1 -1 -1 -0 -0 -1 -1 -1 -1 -1 -1 -1 -1 -1 -1 -1 -1 -1 -1 -1 -1 -0 -0 -0 0 0 0 1 1 0 0 -0 -0 -0 -1 -1 -1 -0 -0 -0 -0 -0 -0 -1
0 0 0 0 0 1 1 1 -0 -1 -1 -1 -1 -2 -3 -1 1 2 2 1 -1 -1 -0 -0 -2 -3 -2 -1 -0 -0 -1 -1 -1 -1 -1 -1 -1 -1 -1 -1 -1 -1 -1 -1 -1 -0 -0 -0 -0 0 0 0 1 0 0 -0 -0 -0 -1 -1 -1 -1 -1 -0 -0 -0 -0 -0 -1
-0 -0 0 0 0 0 0 0 -0 -1 -1 -1 -2 -3 -3 -1 1 1 0 -0 -2 -1 -1 1 -0 -1 -1 -0 -0 -0 -1 -1 -1 -1 -1 -1 -1 -1 -1 -1 -1 -1 -1 -1 -1 -1 -0 -0 -0 0 0 0 0 0 -0 -0 -0 -1 -1 -1 -1 -1 -1 -0 -0 -0 -0 -1 -1
-1 -0 -0 0 0 0 -0 -0 -1 -1 -1 -1 -3 -3 -1 1 1 0 -1 -1 -2 -2 0 3 2 1 0 -0 -1 -1 -1 -1 -1 -1 -1 -1 -0 -0 -1 -1 -1 -1 -1 -1 -1 -1 -1 -0 0 0 0 0 0 -0 -0 -0 -1 -1 -1 -1 -1 -1 -1 -0 -0 -0 -1 -1 -1
-1 -1 -1 -0 -0 -0 -1 -1 -1 -1 -1 -2 -3 -2 0 3 2 0 -1 -2 -3 -1 1 3 1 0 -0 -1 -2 -2 -2 -1 -1 -1 -1 -0 -0 -0 -1 -1 -1 -1 -1 -0 -0 -1 -1 -0 0 0 0 0 0 -0 -0 -0 -1 -1 -1 -1 -1 -1 -1 -0 -0 -1 -1 -1 -1
-0 -1 -1 -1 -1 -1 -1 -1 -1 -1 -1 -2 -3 -1 1 3 1 -0 -2 -2 -1 0 1 1 0 -0 -1 -2 -2 -2 -2 -1 -1 -1 -0 -0 -0 -0 -1 -1 -1 -0 -0 -0 -0 -1 -1 -0 0 0 0 0 -0 -0 -0 -0 -1 -1 -1 -1 -1 -1 -1 -1 -1 -1 -1 -1 -1
-0 -0 -0 -1 -1 -1 -1 -1 -1 -1 -2 -2 -2 0 2 2 -0 -1 -2 -0 1 1 1 0 0 -0 -0 -1 -1 -1 -1 -1 -1 -0 -0 -0 -0 -0 -0 -1 -0 -0 -0 -0 -0 -1 -0 -0 0 0 0 0 -0 -0 -0 -0 -1 -1 -1 -1 -1 -1 -1 -1 -1 -1 -1 -1 -1
0 0 0 -0 -1 -1 -1 -1 -1 -1 -1 -1 -1 1 2 2 -0 -1 -0 2 3 2 -0 -1 0 0 0 -0 -1 -1 -1 -1 -0 -0 -0 0 -0 -0 -0 -0 -0 -0 0 0 -0 -0 -0 -0 0 0 0 0 -0 -0 -0 -0 -0 -1 -1 -1 -1 -1 -1 -1 -1 -1 -1 -1 -1
1 1 0 0 -0 -0 -0 -0 -1 -1 -1 -0 0 1 2 1 -1 -1 1 4 4 2 1 0 1 1 -0 -1 -1 -1 -1 -1 -1 -0 -0 -0 -0 -0 -0 -0 -0 -0 0 0 -0 -0 -0 0 0 0 0 0 -0 -0 -0 -0 -0 -1 -1 -1 -1 -1 -1 -1 -1 -1 -1 -1 -2
1 1 1 0 0 0 0 -0 -1 -1 -0 1 2 2 2 1 -1 -1 1 4 2 1 1 1 1 0 -0 -1 -1 -1 -1 -1 -1 -1 -1 -0 -0 -0 -0 -0 -0 -0 0 0 -0 -0 -0 0 0 1 0 0 -0 -0 -0 -0 -0 -0 -1 -1 -1 -1 -1 -1 -1 -1 -2 -2 -3
Height
1499 1500 1501 1503 1504 1505 1507 1508 1509 1510 1511 1512 1513 1514 1515 1516 1517 1518 1519 1520 1520 1521 1521 1522 1523 1523 1524 1524 1525 1525 1526 1526 1526 1527 1527 1528 1528 1529 1529 1529 1529 1530 1530 1530 1531 1531 1531 1531 1531 1531 1531 1531 1531 1531 1531 1531 1531 1531 1531 1530 1530 1529 1529 1528 1528 1527 1527 1526 1526
1498 1499 1500 1502 1503 1505 1506 1507 1508 1509 1510 1511 1512 1513 1514 1515 1516 1517 1518 1519 1519 1520 1521 1521 1522 1523 1523 1524 1524 1524 1525 1525 1526 1526 1527 1527 1528 1528 1529 1529 1529 1529 1529 1530 1530 1530 1530 1530 1530 1531 1531 1531 1531 1531 1531 1530 1530 1530 1530 1529 1529 1528 1528 1528 1527 1527 1526 1526 1525
1497 1498 1499 1501 1503 1504 1505 1506 1508 1509 1510 1511 1512 1513 1514 1514 1515 1516 1517 1518 1519 1519 1520 1520 1521 1522 1522 1523 1523 1524 1524 1525 1525 1526 1526 1527 1527 1527 1528 1528 1528 1529 1529 1529 1529 1529 1529 1530 1530 1531 1531 1530 1530 1530 1530 1529 1529 1529 1529 1529 1528 1528 1528 1527 1527 1526 1526 1525 1525
1496 1497 1499 1500 1501 1503 1504 1506 1507 1508 1509 1510 1511 1512 1513 1514 1514 1515 1516 1517 1518 1518 1519 1520 1520 1521 1521 1522 1522 1523 1524 1524 1524 1525 1526 1526 1526 1527 1527 1527 1528 1528 1528 1529 1529 1529 1529 1530 1530 1530 1530 1529 1529 1529 1529 1529 1528 1528 1528 1528 1528 1527 1527 1527 1526 1526 1525 1524 1524
1495 1496 1498 1499 1501 1502 1504 1505 1506 1507 1508 1509 1510 1511 1512 1513 1513 1514 1515 1516 1517 1518 1518 1519 1519 1520 1520 1521 1522 1522 1523 1524 1524 1525 1525 1526 1526 1526 1527 1527 1527 1528 1528 1528 1529 1529 1529 1529 1529 1529 1529 1529 1529 1529 1528 1528 1528 1527 1527 1527 1527 1527 1527 1526 1526 1525 1525 1524 1523
1494 1495 1497 1498 1500 1501 1503 1504 1505 1506 1507 1508 1509 1510 1511 1511 1512 1513 1514 1515 1516 1517 1517 1518 1519 1519 1519 1520 1521 1521 1522 1523 1523 1524 1525 1525 1525 1525 1526 1526 1526 1527 1528 1528 1528 1528 1528 1528 1528 1528 1528 1528 1528 1528 1527 1527 1527 1527 1527 1527 1527 1526 1526 1525 1525 1524 1524 1523 1523
1493 1494 1496 1497 1499 1500 1502 1503 1504 1505 1506 1507 1508 1509 1510 1511 1511 1512 1513 1514 1515 1516 1516 1517 1518 1518 1519 1519 1520 1521 1521 1522 1522 1523 1524 1524 1525 1525 1525 1526 1526 1527 1527 1527 1527 1527 1527 1527 1527 1528 1528 1527 1527 1527 1527 1527 1527 1526 1526 1526 1526 1526 1525 1525 1524 1524 1523 1523 1522
1492 1493 1495 1496 1498 1499 1501 1502 1503 1504 1505 1506 1507 1508 1509 1510 1511 1512 1513 1514 1514 1515 1516 1516 1517 1518 1518 1519 1519 1520 1520 1521 1522 1523 1523 1524 1524 1524 1525 1526 1526 1526 1526 1526 1526 1526 1527 1527 1527 1527 1527 1526 1526 1526 1526 1526 1526 1526 1526 1525 1525 1525 1525 1524 1524 1523 1523 1522 1521
1491 1492 1494 1495 1497 1498 1500 1501 1502 1503 1504 1505 1506 1507 1509 1509 1510 1511 1512 1513 1514 1514 1515 1516 1516 1517 1517 1518 1519 1519 1520 1520 1521 1522 1523 1523 1524 1524 1525 1525 1525 1525 1525 1525 1526 1526 1526 1526 1526 1526 1526 1526 1526 1526 1526 1526 1526 1525 1525 1525 1525 1524 1524 1524 1523 1523 1522 1521 1520
1490 1491 1493 1494 1496 1497 1499 1500 1501 1502 1503 1504 1505 1507 1508 1509 1510 1510 1511 1512 1513 1514 1514 1515 1515 1516 1517 1517 1518 1519 1519 1520 1521 1521 1522 1523 1523 1524 1524 1524 1524 1524 1525 1525 1525 1525 1525 1525 1525 1525 1525 1525 1525 1525 1525 1525 1525 1525 1524 1524 1524 1524 1523 1523 1522 1522 1521 1521 1520
1489 1490 1492 1493 1494 1496 1498 1499 1500 1501 1502 1504 1504 1506 1507 1508 1509 1510 1511 1511 1512 1513 1513 1514 1514 1515 1516 1517 1518 1518 1519 1519 1520 1521 1522 1522 1523 1523 1523 1524 1524 1524 1524 1524 1524 1524 1524 1524 1525 1525 1525 1525 1525 1525 1525 1525 1524 1524 1524 1524 1524 1523 1523 1522 1522 1521 1521 1520 1519
1489 1490 1491 1492 1494 1495 1496 1498 1499 1500 1501 1502 1504 1505 1506 1507 1509 1509 1510 1511 1511 1512 1513 1513 1514 1515 1515 1516 1517 1518 1519 1519 1520 1520 1521 1522 1522 1522 1522 1523 1523 1523 1523 1523 1523 1524 1524 1524 1524 1524 1524 1524 1524 1524 1524 1524 1524 1524 1524 1523 1523 1522 1522 1521 1521 1520 1520 1519 1519
1488 1489 1490 1492 1493 1494 1495 1496 1498 1499 1500 1501 1503 1504 1505 1507 1508 1509 1509 1510 1510 1511 1512 1513 1513 1514 1515 1515 1516 1517 1518 1519 1519 1520 1520 1521 1521 1521 1522 1522 1522 1522 1522 1522 1523 1523 1523 1524 1524 1524 1524 1524 1524 1524 1524 1523 1523 1523 1523 1523 1522 1522 1521 1521 1520 1520 1519 1519 1519
1487 1488 1489 1491 1492 1493 1494 1495 1497 1498 1499 1500 1501 1503 1504 1506 1507 1508 1508 1509 1510 1510 1511 1512 1513 1513 1514 1515 1515 1516 1517 1518 1519 1519 1520 1520 1521 1521 1521 1521 1522 1522 1522 1522 1522 1523 1523 1523 1523 1523 1523 1523 1523 1523 1523 1523 1523 1523 1522 1522 1521 1521 1520 1520 1519 1519 1519 1519 1518
1486 1488 1489 1490 1491 1492 1493 1494 1495 1496 1498 1499 1500 1502 1503 1505 1506 1507 1508 1509 1509 1510 1510 1511 1512 1513 1513 1514 1515 1516 1517 1518 1518 1519 1519 1520 1520 1520 1521 1521 1521 1521 1522 1522 1522 1522 1522 1522 1522 1522 1522 1522 1522 1522 1522 1522 1522 1522 1521 1521 1520 1520 1520 1519 1519 1519 1519 1518 1518
1485 1486 1488 1489 1490 1491 1492 1493 1494 1495 1496 1498 1499 1501 1502 1504 1505 1506 1507 1508 1509 1509 1510 1510 1511 1512 1513 1514 1514 1515 1516 1517 1518 1519 1519 1519 1519 1520 1520 1520 1521 1521 1521 1521 1521 1521 1521 1521 1522 1522 1522 1522 1522 1522 1522 1522 1521 1521 1521 1520 1520 1519 1519 1519 1519 1518 1518 1518 1517
1484 1485 1487 1488 1489 1490 1491 1492 1493 1494 1495 1497 1498 1500 1502 1503 1504 1505 1506 1507 1508 1509 1509 1510 1511 1511 1512 1513 1514 1515 1516 1516 1517 1518 1518 1519 1519 1519 1519 1520 1520 1520 1520 1520 1520 1520 1521 1521 1521 1521 1521 1521 1521 1521 1521 1521 1521 1520 1520 1520 1519 1519 1519 1518 1518 1518 1518 1517 1517
1482 1484 1485 1487 1488 1489 1490 1491 1492 1494 1495 1496 1498 1499 1501 1503 1504 1505 1506 1507 1507 1508 1509 1509 1510 1511 1512 1513 1514 1514 1515 1516 1517 1517 1517 1518 1518 1519 1519 1519 1519 1520 1520 1520 1520 1520 1520 1520 1520 1521 1521 1521 1521 1521 1521 1520 1520 1520 1519 1519 1519 1519 1518 1518 1518 1518 1517 1517 1516
1481 1483 1484 1486 1487 1488 1489 1490 1492 1493 1494 1496 1497 1499 1500 1502 1503 1504 1505 1506 1507 1508 1508 1509 1510 1510 1511 1512 1513 1514 1515 1516 1516 1516 1517 1517 1517 1518 1518 1519 1519 1519 1519 1519 1519 1519 1519 1520 1520 1520 1520 1520 1520 1520 1520 1520 1520 1519 1519 1519 1518 1518 1518 1518 1517 1517 1517 1516 1516
1480 1481 1483 1484 1486 1487 1489 1490 1491 1493 1494 1495 1497 1498 1499 1501 1502 1503 1504 1505 1506 1507 1508 1508 1509 1510 1511 1512 1513 1514 1514 1515 1515 1516 1516 1516 1517 1517 1518 1518 1518 1518 1518 1518 1519 1519 1519 1519 1519 1520 1520 1520 1520 1520 1519 1519 1519 1519 1519 1518 1518 1518 1517 1517 1517 1517 1516 1516 1515
1479 1480 1482 1483 1484 1486 1488 1490 1491 1492 1494 1495 1496 1497 1499 1500 1502 1502 1503 1504 1505 1506 1507 1508 1509 1510 1510 1511 1512 1513 1514 1514 1514 1515 1515 1516 1516 1517 1517 1517 1517 1517 1518 1518 1518 1518 1519 1519 1519 1519 1519 1519 1519 1519 1519 1519 1519 1519 1518 1518 1517 1517 1517 1517 1516 1516 1516 1515 1515
1478 1479 1481 1482 1484 1485 1487 1489 1490 1492 1493 1494 1495 1497 1498 1499 1501 1502 1502 1503 1504 1505 1506 1507 1508 1509 1510 1511 1512 1513 1514 1514 1514 1514 1515 1515 1515 1516 1516 1516 1516 1517 1517 1517 1518 1518 1518 1519 1519 1519 1519 1519 1519 1519 1519 1519 1518 1518 1518 1517 1517 1517 1517 1516 1516 1516 1515 1515 1514
1477 1479 1480 1481 1483 1485 1487 1488 1489 1491 1492 1493 1494 1496 1497 1499 1500 1500 1501 1502 1503 1504 1505 1506 1508 1509 1510 1511 1512 1512 1513 1513 1513 1514 1514 1514 1515 1515 1515 1515 1516 1516 1516 1517 1517 1517 1518 1518 1518 1518 1519 1519 1518 1518 1518 1518 1518 1518 1517 1517 1517 1516 1516 1516 1516 1515 1515 1514 1514
1476 1477 1479 1480 1482 1484 1485 1487 1488 1489 1491 1492 1494 1495 1497 1498 1499 1499 1500 1502 1503 1504 1504 1506 1507 1508 1509 1511 1511 1512 1512 1512 1513 1513 1513 1514 1514 1514 1515 1515 1515 1515 1515 1516 1516 1517 1517 1518 1518 1518 1518 1518 1518 1518 1518 1518 1517 1517 1517 1517 1516 1516 1516 1515 1515 1515 1514 1514 1514
1474 1476 1478 1479 1481 1483 1484 1486 1487 1488 1490 1491 1493 1494 1496 1497 1498 1499 1499 1501 1502 1503 1504 1505 1506 1508 1509 1510 1511 1511 1512 1512 1512 1513 1513 1513 1513 1514 1514 1514 1514 1514 1515 1515 1516 1517 1517 1517 1517 1518 1518 1518 1518 1517 1517 1517 1517 1517 1517 1516 1516 1516 1515 1515 1515 1514 1514 1514 1513
1474 1475 1477 1478 1480 1482 1483 1484 1486 1487 1489 1491 1492 1494 1495 1496 1497 1498 1499 1500 1501 1502 1503 1504 1505 1507 1508 1509 1510 1511 1511 1512 1512 1512 1512 1513 1513 1513 1513 1514 1514 1514 1514 1515 1516 1516 1517 1517 1517 1517 1517 1517 1517 1517 1517 1517 1516 1516 1516 1516 1516 1515 1515 1515 1514 1514 1514 1513 1513
1473 1474 1476 1477 1479 1481 1482 1484 1485 1487 1488 1490 1491 1493 1494 1495 1497 1497 1498 1499 1500 1501 1502 1504 1505 1506 1508 1509 1509 1510 1510 1511 1511 1511 1512 1512 1512 1512 1512 1513 1513 1514 1514 1515 1515 1516 1516 1517 1517 1517 1517 1516 1516 1516 1516 1516 1516 1516 1516 1516 1515 1515 1515 1514 1514 1514 1514 1513 1513
1471 1473 1475 1476 1478 1479 1481 1483 1484 1486 1488 1489 1491 1492 1494 1494 1496 1497 1498 1499 1500 1501 1502 1503 1504 1505 1507 1508 1509 1509 1510 1510 1510 1511 1511 1511 1511 1511 1512 1512 1512 1513 1514 1514 1515 1515 1516 1516 1516 1516 1516 1516 1516 1516 1516 1516 1516 1515 1515 1515 1515 1515 1514 1514 1514 1514 1513 1513 1512
1470 1472 1474 1475 1477 1479 1480 1482 1483 1485 1487 1489 1490 1491 1493 1494 1495 1496 1497 1498 1499 1500 1501 1502 1503 1504 1506 1507 1508 1508 1509 1509 1510 1510 1510 1510 1510 1510 1511 1511 1512 1513 1514 1514 1515 1515 1515 1515 1516 1516 1516 1515 1515 1515 1515 1515 1515 1515 1515 1515 1515 1514 1514 1514 1514 1513 1513 1512 1512
1469 1471 1473 1474 1476 1478 1479 1481 1483 1484 1486 1488 1489 1491 1492 1493 1494 1495 1496 1497 1498 1499 1500 1501 1502 1504 1505 1506 1507 1508 1508 1509 1509 1509 1509 1509 1510 1510 1510 1511 1512 1512 1513 1514 1514 1514 1515 1515 1515 1515 1515 1515 1515 1515 1515 1515 1515 1515 1514 1514 1514 1514 1514 1514 1514 1513 1513 1512 1512
1469 1470 1472 1474 1475 1477 1479 1480 1482 1483 1485 1487 1489 1490 1491 1492 1494 1494 1496 1497 1498 1499 1500 1501 1502 1503 1504 1505 1506 1507 1508 1508 1508 1509 1509 1509 1509 1509 1510 1510 1511 1512 1513 1513 1514 1514 1514 1514 1514 1514 1514 1514 1514 1514 1514 1514 1514 1514 1514 1514 1514 1514 1514 1514 1513 1513 1512 1512 1511
1468 1469 1471 1473 1474 1476 1478 1479 1481 1483 1484 1486 1488 1489 1490 1492 1493 1494 1495 1496 1497 1498 1499 1500 1501 1502 1504 1504 1505 1506 1507 1507 1507 1508 1508 1508 1509 1509 1509 1510 1511 1511 1512 1513 1513 1514 1514 1514 1514 1514 1514 1514 1514 1514 1514 1514 1514 1514 1514 1514 1514 1514 1514 1513 1513 1513 1512 1512 1511
1467 1469 1470 1472 1474 1475 1477 1479 1480 1482 1484 1485 1487 1489 1490 1491 1492 1493 1494 1495 1496 1497 1499 1499 1500 1501 1503 1504 1504 1505 1506 1506 1507 1507 1507 1508 1508 1509 1509 1510 1510 1511 1512 1512 1513 1513 1513 1513 1513 1513 1513 1513 1513 1513 1513 1513 1513 1513 1513 1513 1513 1513 1513 1513 1513 1512 1512 1511 1511
1466 1468 1469 1471 1473 1474 1476 1478 1479 1481 1483 1484 1486 1488 1489 1490 1491 1492 1494 1494 1496 1497 1498 1499 1500 1501 1502 1503 1504 1504 1505 1505 1506 1506 1507 1507 1508 1508 1509 1509 1510 1510 1511 1512 1512 1512 1512 1513 1513 1513 1513 1513 1513 1513 1513 1513 1513 1513 1513 1513 1513 1513 1513 1513 1512 1512 1512 1511 1511
1464 1466 1468 1470 1472 1473 1475 1477 1478 1480 1482 1483 1485 1486 1488 1489 1490 1492 1493 1494 1495 1496 1497 1499 1499 1500 1501 1502 1503 1503 1504 1504 1505 1505 1506 1507 1507 1508 1508 1509 1509 1510 1510 1511 1511 1512 1512 1512 1512 1512 1512 1512 1512 1512 1512 1512 1512 1512 1512 1512 1512 1512 1512 1512 1512 1512 1511 1511 1510
1463 1465 1467 1469 1470 1472 1474 1475 1477 1479 1480 1482 1484 1485 1487 1488 1490 1491 1492 1493 1494 1495 1496 1497 1498 1499 1500 1501 1502 1503 1503 1504 1504 1505 1505 1506 1507 1507 1508 1508 1509 1509 1510 1510 1511 1511 1511 1511 1511 1511 1512 1512 1511 1511 1512 1512 1512 1512 1512 1512 1512 1512 1512 1512 1511 1511 1511 1510 1510
1462 1464 1466 1468 1469 1471 1473 1474 1476 1478 1479 1481 1483 1484 1486 1487 1489 1490 1491 1492 1493 1494 1495 1496 1497 1498 1499 1500 1501 1502 1503 1503 1504 1504 1505 1506 1506 1507 1507 1508 1508 1509 1509 1510 1510 1510 1510 1511 1511 1511 1511 1511 1511 1511 1511 1511 1511 1511 1511 1511 1511 1511 1511 1511 1511 1511 1510 1510 1510
1461 1463 1465 1466 1468 1470 1472 1473 1475 1477 1478 1480 1482 1484 1485 1487 1488 1489 1490 1491 1492 1493 1495 1496 1497 1498 1499 1499 1500 1501 1502 1503 1503 1504 1504 1505 1505 1506 1506 1507 1508 1508 1509 1509 1509 1509 1510 1510 1510 1510 1510 1510 1510 1510 1510 1511 1511 1511 1511 1511 1511 1511 1511 1510 1510 1510 1510 1509 1509
1460 1462 1464 1465 1467 1469 1470 1472 1474 1476 1477 1479 1481 1483 1484 1486 1487 1488 1489 1490 1491 1493 1494 1495 1496 1497 1498 1499 1499 1500 1501 1502 1503 1503 1504 1504 1505 1505 1506 1506 1507 1508 1508 1509 1509 1509 1509 1509 1510 1510 1510 1510 1510 1510 1510 1510 1510 1510 1510 1510 1510 1510 1510 1510 1510 1510 1509 1509 1509
1459 1461 1463 1464 1466 1468 1470 1471 1473 1475 1477 1479 1480 1482 1484 1485 1486 1487 1488 1489 1491 1492 1493 1494 1495 1496 1497 1497 1498 1499 1500 1501 1502 1503 1503 1504 1504 1505 1505 1506 1506 1507 1507 1508 1508 1508 1509 1509 1509 1509 1509 1509 1509 1509 1510 1510 1510 1510 1510 1510 1510 1510 1510 1509 1509 1509 1509 1508 1508
1459 1460 1462 1464 1465 1467 1469 1470 1472 1474 1476 1478 1480 1482 1483 1484 1485 1486 1487 1489 1490 1491 1492 1493 1494 1495 1495 1496 1497 1498 1499 1500 1501 1502 1502 1503 1504 1504 1504 1505 1506 1506 1507 1507 1507 1508 1508 1509 1509 1509 1509 1509 1509 1509 1509 1509 1509 1509 1509 1509 1509 1509 1509 1509 1509 1509 1508 1508 1507